| time (UTC) | temp C | wind direction | speed KPH | gust KPH | rain 1hr cm | rain 24hr cm | rain mn cm | humidity % | barometer mb |
| 20260504190036 | 23 | 204 | 3.2 | 14.5 | 0.00 | 0.00 | 0.00 | 33 | 1010.2 |
| 20260504184534 | 23 | 284 | 3.2 | 12.9 | 0.00 | 0.00 | 0.00 | 35 | 1010.2 |
| 20260504183027 | 22 | 253 | 6.4 | 16.1 | 0.00 | 0.00 | 0.00 | 39 | 1010.2 |
| 20260504181523 | 22 | 178 | 3.2 | 14.5 | 0.00 | 0.00 | 0.00 | 38 | 1010.2 |
| 20260504180020 | 21 | 236 | 4.8 | 11.3 | 0.00 | 0.00 | 0.00 | 43 | 1010.2 |
| 20260504174516 | 21 | 325 | 1.6 | 8.0 | 0.00 | 0.00 | 0.00 | 44 | 1010.2 |
| 20260504173012 | 20 | 166 | 0.0 | 4.8 | 0.00 | 0.00 | 0.00 | 47 | 1010.2 |
| 20260504171508 | 18 | 232 | 1.6 | 6.4 | 0.00 | 0.00 | 0.00 | 49 | 1010.2 |
| 20260504081557 | 9 | 304 | 0.0 | 0.0 | 0.00 | 0.00 | 0.00 | 72 | 1010.2 |
| 20260504044539 | 17 | 90 | 0.0 | 3.2 | 0.00 | 0.00 | 0.00 | 50 | 1010.2 |
| 20260504043042 | 17 | 90 | 0.0 | 3.2 | 0.00 | 0.00 | 0.00 | 46 | 1010.2 |
| 20260504041537 | 18 | 90 | 1.6 | 9.7 | 0.00 | 0.00 | 0.00 | 44 | 1010.2 |
| 20260504040037 | 18 | 101 | 1.6 | 4.8 | 0.00 | 0.00 | 0.00 | 46 | 1010.2 |
| 20260504034535 | 18 | 101 | 1.6 | 6.4 | 0.00 | 0.00 | 0.00 | 45 | 1010.2 |
| 20260504033034 | 19 | 24 | 3.2 | 6.4 | 0.00 | 0.00 | 0.00 | 47 | 1010.2 |
| 20260504031535 | 20 | 128 | 4.8 | 6.4 | 0.00 | 0.00 | 0.00 | 42 | 1010.2 |
| 20260504030033 | 21 | 167 | 4.8 | 6.4 | 0.00 | 0.00 | 0.00 | 39 | 1010.2 |
| 20260504024534 | 22 | 167 | 1.6 | 4.8 | 0.00 | 0.00 | 0.00 | 38 | 1010.2 |
| 20260504023035 | 24 | 167 | 1.6 | 4.8 | 0.00 | 0.00 | 0.00 | 38 | 1010.2 |
| 20260504021530 | 25 | 167 | 1.6 | 4.8 | 0.00 | 0.00 | 0.00 | 37 | 1010.2 |
| 20260504020029 | 27 | 167 | 1.6 | 4.8 | 0.00 | 0.00 | 0.00 | 31 | 1010.2 |
| 20260504014537 | 27 | 237 | 0.0 | 4.8 | 0.00 | 0.00 | 0.00 | 33 | 1010.2 |
| 20260504013036 | 27 | 207 | 1.6 | 4.8 | 0.00 | 0.00 | 0.00 | 28 | 1010.2 |
| 20260504011527 | 27 | 244 | 3.2 | 8.0 | 0.00 | 0.00 | 0.00 | 29 | 1010.2 |
| 20260504010026 | 27 | 194 | 4.8 | 14.5 | 0.00 | 0.00 | 0.00 | 25 | 1010.2 |
| 20260504004531 | 27 | 248 | 4.8 | 12.9 | 0.00 | 0.00 | 0.00 | 29 | 1010.2 |
| 20260504003024 | 27 | 250 | 3.2 | 14.5 | 0.00 | 0.00 | 0.00 | 26 | 1010.2 |
| 20260504001524 | 27 | 250 | 4.8 | 11.3 | 0.00 | 0.00 | 0.00 | 29 | 1010.2 |
| 20260504000023 | 27 | 92 | 1.6 | 6.4 | 0.00 | 0.00 | 0.00 | 23 | 1010.2 |
| 20260503234522 | 27 | 240 | 4.8 | 11.3 | 0.00 | 0.00 | 0.00 | 27 | 1010.2 |
| 20260503233022 | 27 | 194 | 1.6 | 11.3 | 0.00 | 0.00 | 0.00 | 25 | 1010.2 |
| 20260503231520 | 27 | 273 | 1.6 | 9.7 | 0.00 | 0.00 | 0.00 | 25 | 1010.2 |
| 20260503230017 | 27 | 216 | 1.6 | 12.9 | 0.00 | 0.00 | 0.00 | 27 | 1010.2 |
| 20260503224516 | 27 | 180 | 3.2 | 14.5 | 0.00 | 0.00 | 0.00 | 24 | 1010.2 |
| 20260503223015 | 26 | 309 | 4.8 | 16.1 | 0.00 | 0.00 | 0.00 | 24 | 1010.2 |
| 20260503221513 | 26 | 261 | 1.6 | 12.9 | 0.00 | 0.00 | 0.00 | 29 | 1010.2 |
| 20260503220012 | 26 | 275 | 4.8 | 20.9 | 0.00 | 0.00 | 0.00 | 26 | 1010.2 |
| 20260503214511 | 26 | 221 | 9.7 | 20.9 | 0.00 | 0.00 | 0.00 | 26 | 1010.2 |
| 20260503213010 | 26 | 292 | 3.2 | 14.5 | 0.00 | 0.00 | 0.00 | 27 | 1010.2 |
| 20260503211510 | 26 | 234 | 9.7 | 20.9 | 0.00 | 0.00 | 0.00 | 27 | 1010.2 |
| 20260503210007 | 25 | 235 | 8.0 | 17.7 | 0.00 | 0.00 | 0.00 | 26 | 1010.2 |
| 20260503204503 | 25 | 335 | 3.2 | 17.7 | 0.00 | 0.00 | 0.00 | 29 | 1010.2 |
| 20260503203006 | 24 | 278 | 8.0 | 17.7 | 0.00 | 0.00 | 0.00 | 28 | 1010.2 |
| 20260503201601 | 24 | 111 | 1.6 | 14.5 | 0.00 | 0.00 | 0.00 | 27 | 1010.2 |
| 20260503200106 | 24 | 196 | 3.2 | 14.5 | 0.00 | 0.00 | 0.00 | 29 | 1010.2 |
| 20260503194557 | 23 | 209 | 8.0 | 14.5 | 0.00 | 0.00 | 0.00 | 30 | 1010.2 |
| 20260503193056 | 23 | 237 | 8.0 | 19.3 | 0.00 | 0.00 | 0.00 | 29 | 1010.2 |
| 20260503191554 | 23 | 223 | 9.7 | 19.3 | 0.00 | 0.00 | 0.00 | 30 | 1010.2 |